SES-12

Last updated on Mon Sep 07 2026 00:03:00 GMT+0000 (Coordinated Universal Time)

1 43488U 18049A 26249.62943414 -.00000286 00000+0 00000+0 0 9990 2 43488 0.0156 56.5325 0001849 185.1427 65.6445 1.00271225 30235
UTC large
Height (km)
Speed (km/s)
/
Latitude / Longitude
Inclination (degrees)
Orbital Period (minutes)
Azimuth
Elevation
Range (km)
Doppler Factor

Next 0 passes for location: London (51.5072 / 0.1276)

No passes found over London.
SES-12